owner,sensor,date,latitude,longitude,vertical_datum,mass_concentration_of_oxygen_in_sea_water,qcFlag 
SCCF RECON,ioos:station:SCCF:53:1,2011-04-01T00:00:00Z,26.6493,-81.8810,2.087,6.21,1111122 
SCCF RECON,ioos:station:SCCF:53:1,2011-04-01T01:00:00Z,26.6493,-81.8810,2.041,6.17,1111122 
SCCF RECON,ioos:station:SCCF:53:1,2011-04-01T02:00:00Z,26.6493,-81.8810,2.04,6.16,1111122 
SCCF RECON,ioos:station:SCCF:53:1,2011-04-01T03:00:00Z,26.6493,-81.8810,2.09,6.09,1111122 
SCCF RECON,ioos:station:SCCF:53:1,2011-04-01T04:00:00Z,26.6493,-81.8810,2.14,5.85,1111122 
SCCF RECON,ioos:station:SCCF:53:1,2011-04-01T05:00:00Z,26.6493,-81.8810,2.18,5.83,1111122 
SCCF RECON,ioos:station:SCCF:53:1,2011-04-01T06:00:00Z,26.6493,-81.8810,2.23,5.88,1111122 
SCCF RECON,ioos:station:SCCF:53:1,2011-04-01T07:00:00Z,26.6493,-81.8810,2.24,5.76,1111122 
SCCF RECON,ioos:station:SCCF:53:1,2011-04-01T08:00:00Z,26.6493,-81.8810,2.2,5.88,1111122 
SCCF RECON,ioos:station:SCCF:53:1,2011-04-01T09:00:00Z,26.6493,-81.8810,2.16,6.01,1111122 
SCCF RECON,ioos:station:SCCF:53:1,2011-04-01T10:00:00Z,26.6493,-81.8810,2.12,5.94,1111122 
SCCF RECON,ioos:station:SCCF:53:1,2011-04-01T11:00:00Z,26.6493,-81.8810,2.07,5.79,1111122 
SCCF RECON,ioos:station:SCCF:53:1,2011-04-01T12:00:00Z,26.6493,-81.8810,2.03,5.79,1111122 
SCCF RECON,ioos:station:SCCF:53:1,2011-04-01T13:00:00Z,26.6493,-81.8810,1.995,5.77,1111122 
SCCF RECON,ioos:station:SCCF:53:1,2011-04-01T14:00:00Z,26.6493,-81.8810,1.968,5.65,1111122 
SCCF RECON,ioos:station:SCCF:53:1,2011-04-01T15:00:00Z,26.6493,-81.8810,1.98,5.53,1111122 
SCCF RECON,ioos:station:SCCF:53:1,2011-04-01T16:00:00Z,26.6493,-81.8810,2.038,5.84,1111122 
SCCF RECON,ioos:station:SCCF:53:1,2011-04-01T17:00:00Z,26.6493,-81.8810,2.074,5.86,1111122 
SCCF RECON,ioos:station:SCCF:53:1,2011-04-01T18:00:00Z,26.6493,-81.8810,2.116,6.03,1111122 
SCCF RECON,ioos:station:SCCF:53:1,2011-04-01T19:00:00Z,26.6493,-81.8810,2.13,6.12,1111122 
SCCF RECON,ioos:station:SCCF:53:1,2011-04-01T20:00:00Z,26.6493,-81.8810,2.12,6.11,1111122 
SCCF RECON,ioos:station:SCCF:53:1,2011-04-01T21:00:00Z,26.6493,-81.8810,2.072,6.63,1111122 
SCCF RECON,ioos:station:SCCF:53:1,2011-04-01T22:00:00Z,26.6493,-81.8810,2.026,6.51,1111122 
SCCF RECON,ioos:station:SCCF:53:1,2011-04-01T23:00:00Z,26.6493,-81.8810,1.985,6.74,1111122 
SCCF RECON,ioos:station:SCCF:53:1,2011-04-02T00:00:00Z,26.6493,-81.8810,1.949,6.3,1111122 
SCCF RECON,ioos:station:SCCF:53:1,2011-04-02T01:00:00Z,26.6493,-81.8810,1.91,6.23,1111122 
SCCF RECON,ioos:station:SCCF:53:1,2011-04-02T02:00:00Z,26.6493,-81.8810,1.877,6.31,1111122 
SCCF RECON,ioos:station:SCCF:53:1,2011-04-02T03:00:00Z,26.6493,-81.8810,1.86,6.38,1111122 
SCCF RECON,ioos:station:SCCF:53:1,2011-04-02T04:00:00Z,26.6493,-81.8810,1.89,5.48,1111122 
SCCF RECON,ioos:station:SCCF:53:1,2011-04-02T05:00:00Z,26.6493,-81.8810,1.94,5.31,1111122 
SCCF RECON,ioos:station:SCCF:53:1,2011-04-02T06:00:00Z,26.6493,-81.8810,1.98,5.81,1111122 
SCCF RECON,ioos:station:SCCF:53:1,2011-04-02T07:00:00Z,26.6493,-81.8810,2.019,5.87,1111122 
SCCF RECON,ioos:station:SCCF:53:1,2011-04-02T08:00:00Z,26.6493,-81.8810,2.04,5.81,1111122 
SCCF RECON,ioos:station:SCCF:53:1,2011-04-02T09:00:00Z,26.6493,-81.8810,2.02,5.78,1111122 
SCCF RECON,ioos:station:SCCF:53:1,2011-04-02T10:00:00Z,26.6493,-81.8810,1.97,5.64,1111122 
SCCF RECON,ioos:station:SCCF:53:1,2011-04-02T11:00:00Z,26.6493,-81.8810,1.94,5.3,1111122 
SCCF RECON,ioos:station:SCCF:53:1,2011-04-02T12:00:00Z,26.6493,-81.8810,1.91,5.5,1111122 
SCCF RECON,ioos:station:SCCF:53:1,2011-04-02T13:00:00Z,26.6493,-81.8810,1.881,5.52,1111122 
SCCF RECON,ioos:station:SCCF:53:1,2011-04-02T14:00:00Z,26.6493,-81.8810,1.87,5.47,1111122 
SCCF RECON,ioos:station:SCCF:53:1,2011-04-02T15:00:00Z,26.6493,-81.8810,1.886,5.65,1111122 
SCCF RECON,ioos:station:SCCF:53:1,2011-04-02T16:00:00Z,26.6493,-81.8810,1.942,5.98,1111122 
SCCF RECON,ioos:station:SCCF:53:1,2011-04-02T17:00:00Z,26.6493,-81.8810,1.989,6.34,1111122 
SCCF RECON,ioos:station:SCCF:53:1,2011-04-02T18:00:00Z,26.6493,-81.8810,2.03,6.74,1111122 
SCCF RECON,ioos:station:SCCF:53:1,2011-04-02T19:00:00Z,26.6493,-81.8810,2.08,7.05,1111122 
SCCF RECON,ioos:station:SCCF:53:1,2011-04-02T20:00:00Z,26.6493,-81.8810,2.105,7.06,1111122 
SCCF RECON,ioos:station:SCCF:53:1,2011-04-02T21:00:00Z,26.6493,-81.8810,2.098,7.09,1111122 
SCCF RECON,ioos:station:SCCF:53:1,2011-04-02T22:00:00Z,26.6493,-81.8810,2.048,7.23,1111122 
SCCF RECON,ioos:station:SCCF:53:1,2011-04-02T23:00:00Z,26.6493,-81.8810,1.999,6.97,1111122 
SCCF RECON,ioos:station:SCCF:53:1,2011-04-03T00:00:00Z,26.6493,-81.8810,1.96,6.81,1111122 
SCCF RECON,ioos:station:SCCF:53:1,2011-04-03T01:00:00Z,26.6493,-81.8810,1.919,6.96,1111122 
SCCF RECON,ioos:station:SCCF:53:1,2011-04-03T02:00:00Z,26.6493,-81.8810,1.88,6.77,1111122 
SCCF RECON,ioos:station:SCCF:53:1,2011-04-03T03:00:00Z,26.6493,-81.8810,1.85,6.55,1111122 
SCCF RECON,ioos:station:SCCF:53:1,2011-04-03T04:00:00Z,26.6493,-81.8810,1.855,6.14,1111122 
SCCF RECON,ioos:station:SCCF:53:1,2011-04-03T05:00:00Z,26.6493,-81.8810,1.91,6.15,1111122 
SCCF RECON,ioos:station:SCCF:53:1,2011-04-03T06:00:00Z,26.6493,-81.8810,1.95,6.53,1111122 
SCCF RECON,ioos:station:SCCF:53:1,2011-04-03T07:00:00Z,26.6493,-81.8810,1.99,6.55,1111122 
SCCF RECON,ioos:station:SCCF:53:1,2011-04-03T08:00:00Z,26.6493,-81.8810,2.03,6.5,1111122 
SCCF RECON,ioos:station:SCCF:53:1,2011-04-03T09:00:00Z,26.6493,-81.8810,2.05,6.44,1111122 
SCCF RECON,ioos:station:SCCF:53:1,2011-04-03T10:00:00Z,26.6493,-81.8810,2.02,6.49,1111122 
SCCF RECON,ioos:station:SCCF:53:1,2011-04-03T11:00:00Z,26.6493,-81.8810,1.979,6.67,1111122 
SCCF RECON,ioos:station:SCCF:53:1,2011-04-03T12:00:00Z,26.6493,-81.8810,1.94,6.24,1111122 
SCCF RECON,ioos:station:SCCF:53:1,2011-04-03T13:00:00Z,26.6493,-81.8810,1.908,6.35,1111122 
SCCF RECON,ioos:station:SCCF:53:1,2011-04-03T14:00:00Z,26.6493,-81.8810,1.868,6.4,1111122 
SCCF RECON,ioos:station:SCCF:53:1,2011-04-03T15:00:00Z,26.6493,-81.8810,1.84,6.52,1111122 
SCCF RECON,ioos:station:SCCF:53:1,2011-04-03T16:00:00Z,26.6493,-81.8810,1.831,6.61,1111122 
SCCF RECON,ioos:station:SCCF:53:1,2011-04-03T17:00:00Z,26.6493,-81.8810,1.873,6.9,1111122 
SCCF RECON,ioos:station:SCCF:53:1,2011-04-03T18:00:00Z,26.6493,-81.8810,1.912,7.05,1111122 
SCCF RECON,ioos:station:SCCF:53:1,2011-04-03T19:00:00Z,26.6493,-81.8810,1.949,7.26,1111122 
SCCF RECON,ioos:station:SCCF:53:1,2011-04-03T20:00:00Z,26.6493,-81.8810,1.99,7.37,1111122 
SCCF RECON,ioos:station:SCCF:53:1,2011-04-03T21:00:00Z,26.6493,-81.8810,1.996,7.34,1111122 
SCCF RECON,ioos:station:SCCF:53:1,2011-04-03T22:00:00Z,26.6493,-81.8810,1.95,7.39,1111122 
SCCF RECON,ioos:station:SCCF:53:1,2011-04-03T23:00:00Z,26.6493,-81.8810,1.909,7.5,1111122 
SCCF RECON,ioos:station:SCCF:53:1,2011-04-04T00:00:00Z,26.6493,-81.8810,1.87,7.24,1111122 
SCCF RECON,ioos:station:SCCF:53:1,2011-04-04T01:00:00Z,26.6493,-81.8810,1.831,7.13,1111122 
SCCF RECON,ioos:station:SCCF:53:1,2011-04-04T02:00:00Z,26.6493,-81.8810,1.8,7.12,1111122 
SCCF RECON,ioos:station:SCCF:53:1,2011-04-04T03:00:00Z,26.6493,-81.8810,1.77,7.02,1111122 
SCCF RECON,ioos:station:SCCF:53:1,2011-04-04T04:00:00Z,26.6493,-81.8810,1.77,6.93,1111122 
SCCF RECON,ioos:station:SCCF:53:1,2011-04-04T05:00:00Z,26.6493,-81.8810,1.82,6.97,1111122 
SCCF RECON,ioos:station:SCCF:53:1,2011-04-04T06:00:00Z,26.6493,-81.8810,1.87,7.0,1111122 
SCCF RECON,ioos:station:SCCF:53:1,2011-04-04T07:00:00Z,26.6493,-81.8810,1.91,7.09,1111122 
SCCF RECON,ioos:station:SCCF:53:1,2011-04-04T08:00:00Z,26.6493,-81.8810,1.97,6.93,1111122 
SCCF RECON,ioos:station:SCCF:53:1,2011-04-04T09:00:00Z,26.6493,-81.8810,2.01,6.95,1111122 
SCCF RECON,ioos:station:SCCF:53:1,2011-04-04T10:00:00Z,26.6493,-81.8810,2.022,6.89,1111122 
SCCF RECON,ioos:station:SCCF:53:1,2011-04-04T11:00:00Z,26.6493,-81.8810,2.01,6.78,1111122 
SCCF RECON,ioos:station:SCCF:53:1,2011-04-04T12:00:00Z,26.6493,-81.8810,1.98,6.76,1111122 
SCCF RECON,ioos:station:SCCF:53:1,2011-04-04T13:00:00Z,26.6493,-81.8810,1.95,6.67,1111122 
SCCF RECON,ioos:station:SCCF:53:1,2011-04-04T14:00:00Z,26.6493,-81.8810,1.921,6.62,1111122 
SCCF RECON,ioos:station:SCCF:53:1,2011-04-04T15:00:00Z,26.6493,-81.8810,1.921,6.55,1111122 
SCCF RECON,ioos:station:SCCF:53:1,2011-04-04T16:00:00Z,26.6493,-81.8810,1.974,6.74,1111122 
SCCF RECON,ioos:station:SCCF:53:1,2011-04-04T17:00:00Z,26.6493,-81.8810,2.03,7.09,1111122 
SCCF RECON,ioos:station:SCCF:53:1,2011-04-04T18:00:00Z,26.6493,-81.8810,2.076,7.01,1111122 
SCCF RECON,ioos:station:SCCF:53:1,2011-04-04T19:00:00Z,26.6493,-81.8810,2.13,7.22,1111122 
SCCF RECON,ioos:station:SCCF:53:1,2011-04-04T20:00:00Z,26.6493,-81.8810,2.18,7.48,1111122 
SCCF RECON,ioos:station:SCCF:53:1,2011-04-04T21:00:00Z,26.6493,-81.8810,2.215,7.46,1111122 
SCCF RECON,ioos:station:SCCF:53:1,2011-04-04T22:00:00Z,26.6493,-81.8810,2.223,7.48,1111122 
SCCF RECON,ioos:station:SCCF:53:1,2011-04-04T23:00:00Z,26.6493,-81.8810,2.181,7.55,1111122 
SCCF RECON,ioos:station:SCCF:53:1,2011-04-05T00:00:00Z,26.6493,-81.8810,2.131,7.17,1111122 
SCCF RECON,ioos:station:SCCF:53:1,2011-04-05T01:00:00Z,26.6493,-81.8810,2.078,6.99,1111122 
SCCF RECON,ioos:station:SCCF:53:1,2011-04-05T02:00:00Z,26.6493,-81.8810,2.027,6.84,1111122 
SCCF RECON,ioos:station:SCCF:53:1,2011-04-05T03:00:00Z,26.6493,-81.8810,1.971,6.8,1111122 
SCCF RECON,ioos:station:SCCF:53:1,2011-04-05T04:00:00Z,26.6493,-81.8810,1.937,6.79,1111122 
SCCF RECON,ioos:station:SCCF:53:1,2011-04-05T05:00:00Z,26.6493,-81.8810,1.938,6.71,1111122 
SCCF RECON,ioos:station:SCCF:53:1,2011-04-05T06:00:00Z,26.6493,-81.8810,1.99,6.67,1111122 
SCCF RECON,ioos:station:SCCF:53:1,2011-04-05T07:00:00Z,26.6493,-81.8810,2.028,6.62,1111122 
SCCF RECON,ioos:station:SCCF:53:1,2011-04-05T08:00:00Z,26.6493,-81.8810,2.071,6.55,1111122 
SCCF RECON,ioos:station:SCCF:53:1,2011-04-05T09:00:00Z,26.6493,-81.8810,2.12,6.61,1111122 
SCCF RECON,ioos:station:SCCF:53:1,2011-04-05T10:00:00Z,26.6493,-81.8810,2.16,6.59,1111122 
SCCF RECON,ioos:station:SCCF:53:1,2011-04-05T11:00:00Z,26.6493,-81.8810,2.18,6.54,1111122 
SCCF RECON,ioos:station:SCCF:53:1,2011-04-05T12:00:00Z,26.6493,-81.8810,2.171,6.52,1111122 
SCCF RECON,ioos:station:SCCF:53:1,2011-04-05T13:00:00Z,26.6493,-81.8810,2.139,6.52,1111122 
SCCF RECON,ioos:station:SCCF:53:1,2011-04-05T14:00:00Z,26.6493,-81.8810,2.124,6.46,1111122 
SCCF RECON,ioos:station:SCCF:53:1,2011-04-05T15:00:00Z,26.6493,-81.8810,2.13,6.36,1111122 
SCCF RECON,ioos:station:SCCF:53:1,2011-04-05T16:00:00Z,26.6493,-81.8810,2.183,6.52,1111122 
SCCF RECON,ioos:station:SCCF:53:1,2011-04-05T17:00:00Z,26.6493,-81.8810,2.22,6.51,1111122 
SCCF RECON,ioos:station:SCCF:53:1,2011-04-05T18:00:00Z,26.6493,-81.8810,2.266,6.66,1111122 
SCCF RECON,ioos:station:SCCF:53:1,2011-04-05T19:00:00Z,26.6493,-81.8810,2.296,6.73,1111122 
SCCF RECON,ioos:station:SCCF:53:1,2011-04-05T20:00:00Z,26.6493,-81.8810,2.29,6.85,1111122 
SCCF RECON,ioos:station:SCCF:53:1,2011-04-05T21:00:00Z,26.6493,-81.8810,2.301,6.67,1111122 
SCCF RECON,ioos:station:SCCF:53:1,2011-04-05T22:00:00Z,26.6493,-81.8810,2.28,6.92,1111122 
SCCF RECON,ioos:station:SCCF:53:1,2011-04-05T23:00:00Z,26.6493,-81.8810,2.21,6.9,1111122 
SCCF RECON,ioos:station:SCCF:53:1,2011-04-06T00:00:00Z,26.6493,-81.8810,2.16,6.79,1111122 
SCCF RECON,ioos:station:SCCF:53:1,2011-04-06T01:00:00Z,26.6493,-81.8810,2.114,6.54,1111122 
SCCF RECON,ioos:station:SCCF:53:1,2011-04-06T02:00:00Z,26.6493,-81.8810,2.069,6.43,1111122 
SCCF RECON,ioos:station:SCCF:53:1,2011-04-06T03:00:00Z,26.6493,-81.8810,2.02,6.36,1111122 
SCCF RECON,ioos:station:SCCF:53:1,2011-04-06T04:00:00Z,26.6493,-81.8810,1.97,6.3,1111122 
SCCF RECON,ioos:station:SCCF:53:1,2011-04-06T05:00:00Z,26.6493,-81.8810,1.92,6.28,1111122 
SCCF RECON,ioos:station:SCCF:53:1,2011-04-06T06:00:00Z,26.6493,-81.8810,1.88,6.23,1111122 
SCCF RECON,ioos:station:SCCF:53:1,2011-04-06T07:00:00Z,26.6493,-81.8810,1.874,6.15,1111122 
SCCF RECON,ioos:station:SCCF:53:1,2011-04-06T08:00:00Z,26.6493,-81.8810,1.91,6.26,1111122 
SCCF RECON,ioos:station:SCCF:53:1,2011-04-06T09:00:00Z,26.6493,-81.8810,1.94,6.26,1111122 
SCCF RECON,ioos:station:SCCF:53:1,2011-04-06T10:00:00Z,26.6493,-81.8810,1.961,6.29,1111122 
SCCF RECON,ioos:station:SCCF:53:1,2011-04-06T11:00:00Z,26.6493,-81.8810,1.993,6.29,1111122 
SCCF RECON,ioos:station:SCCF:53:1,2011-04-06T12:00:00Z,26.6493,-81.8810,1.968,6.28,1111122 
SCCF RECON,ioos:station:SCCF:53:1,2011-04-06T13:00:00Z,26.6493,-81.8810,1.928,6.27,1111122 
SCCF RECON,ioos:station:SCCF:53:1,2011-04-06T14:00:00Z,26.6493,-81.8810,1.9,6.29,1111122 
SCCF RECON,ioos:station:SCCF:53:1,2011-04-06T15:00:00Z,26.6493,-81.8810,1.87,6.42,1111122 
SCCF RECON,ioos:station:SCCF:53:1,2011-04-06T16:00:00Z,26.6493,-81.8810,1.855,6.42,1111122 
SCCF RECON,ioos:station:SCCF:53:1,2011-04-06T17:00:00Z,26.6493,-81.8810,1.894,6.88,1111122 
SCCF RECON,ioos:station:SCCF:53:1,2011-04-06T18:00:00Z,26.6493,-81.8810,1.948,7.41,1111122 
SCCF RECON,ioos:station:SCCF:53:1,2011-04-06T19:00:00Z,26.6493,-81.8810,1.992,7.86,1111122 
SCCF RECON,ioos:station:SCCF:53:1,2011-04-06T20:00:00Z,26.6493,-81.8810,2.043,7.89,1111122 
SCCF RECON,ioos:station:SCCF:53:1,2011-04-06T21:00:00Z,26.6493,-81.8810,2.09,7.82,1111122 
SCCF RECON,ioos:station:SCCF:53:1,2011-04-06T22:00:00Z,26.6493,-81.8810,2.121,7.64,1111122 
SCCF RECON,ioos:station:SCCF:53:1,2011-04-06T23:00:00Z,26.6493,-81.8810,2.11,7.52,1111122 
SCCF RECON,ioos:station:SCCF:53:1,2011-04-07T00:00:00Z,26.6493,-81.8810,2.06,7.85,1111122 
SCCF RECON,ioos:station:SCCF:53:1,2011-04-07T01:00:00Z,26.6493,-81.8810,2.02,7.76,1111122 
SCCF RECON,ioos:station:SCCF:53:1,2011-04-07T02:00:00Z,26.6493,-81.8810,1.98,7.52,1111122 
SCCF RECON,ioos:station:SCCF:53:1,2011-04-07T03:00:00Z,26.6493,-81.8810,1.93,7.49,1111122 
SCCF RECON,ioos:station:SCCF:53:1,2011-04-07T04:00:00Z,26.6493,-81.8810,1.89,7.26,1111122 
SCCF RECON,ioos:station:SCCF:53:1,2011-04-07T05:00:00Z,26.6493,-81.8810,1.85,7.16,1111122 
SCCF RECON,ioos:station:SCCF:53:1,2011-04-07T06:00:00Z,26.6493,-81.8810,1.82,7.22,1111122 
SCCF RECON,ioos:station:SCCF:53:1,2011-04-07T07:00:00Z,26.6493,-81.8810,1.84,7.16,1111122 
SCCF RECON,ioos:station:SCCF:53:1,2011-04-07T08:00:00Z,26.6493,-81.8810,1.88,7.1,1111122 
SCCF RECON,ioos:station:SCCF:53:1,2011-04-07T09:00:00Z,26.6493,-81.8810,1.91,6.95,1111122 
SCCF RECON,ioos:station:SCCF:53:1,2011-04-07T10:00:00Z,26.6493,-81.8810,1.95,7.1,1111122 
SCCF RECON,ioos:station:SCCF:53:1,2011-04-07T11:00:00Z,26.6493,-81.8810,1.987,7.14,1111122 
SCCF RECON,ioos:station:SCCF:53:1,2011-04-07T12:00:00Z,26.6493,-81.8810,2.0,6.99,1111122 
SCCF RECON,ioos:station:SCCF:53:1,2011-04-07T13:00:00Z,26.6493,-81.8810,2.0,6.97,1111122 
SCCF RECON,ioos:station:SCCF:53:1,2011-04-07T14:00:00Z,26.6493,-81.8810,1.991,7.16,1111122 
SCCF RECON,ioos:station:SCCF:53:1,2011-04-07T15:00:00Z,26.6493,-81.8810,1.98,7.13,1111122 
SCCF RECON,ioos:station:SCCF:53:1,2011-04-07T16:00:00Z,26.6493,-81.8810,1.994,7.12,1111122 
SCCF RECON,ioos:station:SCCF:53:1,2011-04-07T17:00:00Z,26.6493,-81.8810,2.048,7.25,1111122 
SCCF RECON,ioos:station:SCCF:53:1,2011-04-07T18:00:00Z,26.6493,-81.8810,2.097,7.41,1111122 
SCCF RECON,ioos:station:SCCF:53:1,2011-04-07T19:00:00Z,26.6493,-81.8810,2.15,6.68,1111122 
SCCF RECON,ioos:station:SCCF:53:1,2011-04-07T20:00:00Z,26.6493,-81.8810,2.199,7.71,1111122 
SCCF RECON,ioos:station:SCCF:53:1,2011-04-07T21:00:00Z,26.6493,-81.8810,2.24,7.8,1111122 
SCCF RECON,ioos:station:SCCF:53:1,2011-04-07T22:00:00Z,26.6493,-81.8810,2.277,7.52,1111122 
SCCF RECON,ioos:station:SCCF:53:1,2011-04-07T23:00:00Z,26.6493,-81.8810,2.27,7.24,1111122 
SCCF RECON,ioos:station:SCCF:53:1,2011-04-08T00:00:00Z,26.6493,-81.8810,2.227,7.66,1111122 
SCCF RECON,ioos:station:SCCF:53:1,2011-04-08T01:00:00Z,26.6493,-81.8810,2.172,7.34,1111122 
SCCF RECON,ioos:station:SCCF:53:1,2011-04-08T02:00:00Z,26.6493,-81.8810,2.121,7.34,1111122 
SCCF RECON,ioos:station:SCCF:53:1,2011-04-08T03:00:00Z,26.6493,-81.8810,2.07,7.17,1111122 
SCCF RECON,ioos:station:SCCF:53:1,2011-04-08T04:00:00Z,26.6493,-81.8810,2.02,7.01,1111122 
SCCF RECON,ioos:station:SCCF:53:1,2011-04-08T05:00:00Z,26.6493,-81.8810,1.97,7.04,1111122 
SCCF RECON,ioos:station:SCCF:53:1,2011-04-08T06:00:00Z,26.6493,-81.8810,1.93,7.03,1111122 
SCCF RECON,ioos:station:SCCF:53:1,2011-04-08T07:00:00Z,26.6493,-81.8810,1.92,6.87,1111122 
SCCF RECON,ioos:station:SCCF:53:1,2011-04-08T08:00:00Z,26.6493,-81.8810,1.95,6.82,1111122 
SCCF RECON,ioos:station:SCCF:53:1,2011-04-08T09:00:00Z,26.6493,-81.8810,1.99,6.76,1111122 
SCCF RECON,ioos:station:SCCF:53:1,2011-04-08T10:00:00Z,26.6493,-81.8810,2.03,6.64,1111122 
SCCF RECON,ioos:station:SCCF:53:1,2011-04-08T11:00:00Z,26.6493,-81.8810,2.07,6.65,1111122 
SCCF RECON,ioos:station:SCCF:53:1,2011-04-08T12:00:00Z,26.6493,-81.8810,2.1,6.46,1111122 
SCCF RECON,ioos:station:SCCF:53:1,2011-04-08T13:00:00Z,26.6493,-81.8810,2.1,6.3,1111122 
SCCF RECON,ioos:station:SCCF:53:1,2011-04-08T14:00:00Z,26.6493,-81.8810,2.085,6.16,1111122 
SCCF RECON,ioos:station:SCCF:53:1,2011-04-08T15:00:00Z,26.6493,-81.8810,2.061,6.24,1111122 
SCCF RECON,ioos:station:SCCF:53:1,2011-04-08T16:00:00Z,26.6493,-81.8810,2.038,6.38,1111122 
SCCF RECON,ioos:station:SCCF:53:1,2011-04-08T17:00:00Z,26.6493,-81.8810,2.031,6.13,1111122 
SCCF RECON,ioos:station:SCCF:53:1,2011-04-08T18:00:00Z,26.6493,-81.8810,2.068,6.59,1111122 
SCCF RECON,ioos:station:SCCF:53:1,2011-04-08T19:00:00Z,26.6493,-81.8810,2.11,6.9,1111122 
SCCF RECON,ioos:station:SCCF:53:1,2011-04-08T20:00:00Z,26.6493,-81.8810,2.15,7.04,1111122 
SCCF RECON,ioos:station:SCCF:53:1,2011-04-08T21:00:00Z,26.6493,-81.8810,2.206,6.82,1111122 
SCCF RECON,ioos:station:SCCF:53:1,2011-04-08T22:00:00Z,26.6493,-81.8810,2.259,6.62,1111122 
SCCF RECON,ioos:station:SCCF:53:1,2011-04-08T23:00:00Z,26.6493,-81.8810,2.267,6.59,1111122 
SCCF RECON,ioos:station:SCCF:53:1,2011-04-09T00:00:00Z,26.6493,-81.8810,2.24,6.75,1111122 
SCCF RECON,ioos:station:SCCF:53:1,2011-04-09T01:00:00Z,26.6493,-81.8810,2.19,6.88,1111122 
SCCF RECON,ioos:station:SCCF:53:1,2011-04-09T02:00:00Z,26.6493,-81.8810,2.15,6.5,1111122 
SCCF RECON,ioos:station:SCCF:53:1,2011-04-09T03:00:00Z,26.6493,-81.8810,2.1,6.39,1111122 
SCCF RECON,ioos:station:SCCF:53:1,2011-04-09T04:00:00Z,26.6493,-81.8810,2.05,6.4,1111122 
SCCF RECON,ioos:station:SCCF:53:1,2011-04-09T05:00:00Z,26.6493,-81.8810,1.99,6.25,1111122 
SCCF RECON,ioos:station:SCCF:53:1,2011-04-09T06:00:00Z,26.6493,-81.8810,1.94,6.27,1111122 
SCCF RECON,ioos:station:SCCF:53:1,2011-04-09T07:00:00Z,26.6493,-81.8810,1.91,6.07,1111122 
SCCF RECON,ioos:station:SCCF:53:1,2011-04-09T08:00:00Z,26.6493,-81.8810,1.91,6.15,1111122 
SCCF RECON,ioos:station:SCCF:53:1,2011-04-09T09:00:00Z,26.6493,-81.8810,1.94,6.12,1111122 
SCCF RECON,ioos:station:SCCF:53:1,2011-04-09T10:00:00Z,26.6493,-81.8810,1.98,5.97,1111122 
SCCF RECON,ioos:station:SCCF:53:1,2011-04-09T11:00:00Z,26.6493,-81.8810,2.03,5.96,1111122 
SCCF RECON,ioos:station:SCCF:53:1,2011-04-09T12:00:00Z,26.6493,-81.8810,2.078,5.77,1111122 
SCCF RECON,ioos:station:SCCF:53:1,2011-04-09T13:00:00Z,26.6493,-81.8810,2.11,5.57,1111122 
SCCF RECON,ioos:station:SCCF:53:1,2011-04-09T14:00:00Z,26.6493,-81.8810,2.131,5.68,1111122 
SCCF RECON,ioos:station:SCCF:53:1,2011-04-09T15:00:00Z,26.6493,-81.8810,2.137,5.76,1111122 
SCCF RECON,ioos:station:SCCF:53:1,2011-04-09T16:00:00Z,26.6493,-81.8810,2.13,5.87,1111122 
SCCF RECON,ioos:station:SCCF:53:1,2011-04-09T17:00:00Z,26.6493,-81.8810,2.124,5.71,1111122 
SCCF RECON,ioos:station:SCCF:53:1,2011-04-09T18:00:00Z,26.6493,-81.8810,2.14,6.03,1111122 
SCCF RECON,ioos:station:SCCF:53:1,2011-04-09T19:00:00Z,26.6493,-81.8810,2.179,6.79,1111122 
SCCF RECON,ioos:station:SCCF:53:1,2011-04-09T20:00:00Z,26.6493,-81.8810,2.221,6.51,1111122 
SCCF RECON,ioos:station:SCCF:53:1,2011-04-09T21:00:00Z,26.6493,-81.8810,2.272,6.69,1111122 
SCCF RECON,ioos:station:SCCF:53:1,2011-04-09T22:00:00Z,26.6493,-81.8810,2.309,6.3,1111122 
SCCF RECON,ioos:station:SCCF:53:1,2011-04-09T23:00:00Z,26.6493,-81.8810,2.33,6.08,1111122 
SCCF RECON,ioos:station:SCCF:53:1,2011-04-10T00:00:00Z,26.6493,-81.8810,2.32,6.1,1111122 
SCCF RECON,ioos:station:SCCF:53:1,2011-04-10T01:00:00Z,26.6493,-81.8810,2.27,6.13,1111122 
SCCF RECON,ioos:station:SCCF:53:1,2011-04-10T02:00:00Z,26.6493,-81.8810,2.22,5.93,1111122 
SCCF RECON,ioos:station:SCCF:53:1,2011-04-10T03:00:00Z,26.6493,-81.8810,2.168,5.94,1111122 
SCCF RECON,ioos:station:SCCF:53:1,2011-04-10T04:00:00Z,26.6493,-81.8810,2.11,5.88,1111122 
SCCF RECON,ioos:station:SCCF:53:1,2011-04-10T05:00:00Z,26.6493,-81.8810,2.05,5.82,1111122 
SCCF RECON,ioos:station:SCCF:53:1,2011-04-10T06:00:00Z,26.6493,-81.8810,2.0,5.69,1111122 
SCCF RECON,ioos:station:SCCF:53:1,2011-04-10T07:00:00Z,26.6493,-81.8810,1.94,5.63,1111122 
SCCF RECON,ioos:station:SCCF:53:1,2011-04-10T08:00:00Z,26.6493,-81.8810,1.908,5.7,1111122 
SCCF RECON,ioos:station:SCCF:53:1,2011-04-10T09:00:00Z,26.6493,-81.8810,1.89,5.8,1111122 
SCCF RECON,ioos:station:SCCF:53:1,2011-04-10T10:00:00Z,26.6493,-81.8810,1.92,5.48,1111122 
SCCF RECON,ioos:station:SCCF:53:1,2011-04-10T11:00:00Z,26.6493,-81.8810,1.96,5.52,1111122 
SCCF RECON,ioos:station:SCCF:53:1,2011-04-10T12:00:00Z,26.6493,-81.8810,2.01,4.05,1111122 
SCCF RECON,ioos:station:SCCF:53:1,2011-04-10T13:00:00Z,26.6493,-81.8810,2.05,5.34,1111122 
SCCF RECON,ioos:station:SCCF:53:1,2011-04-10T14:00:00Z,26.6493,-81.8810,2.085,5.15,1111122 
SCCF RECON,ioos:station:SCCF:53:1,2011-04-10T15:00:00Z,26.6493,-81.8810,2.12,5.31,1111122 
SCCF RECON,ioos:station:SCCF:53:1,2011-04-10T16:00:00Z,26.6493,-81.8810,2.134,5.39,1111122 
SCCF RECON,ioos:station:SCCF:53:1,2011-04-10T17:00:00Z,26.6493,-81.8810,2.149,5.48,1111122 
SCCF RECON,ioos:station:SCCF:53:1,2011-04-10T18:00:00Z,26.6493,-81.8810,2.161,5.44,1111122 
SCCF RECON,ioos:station:SCCF:53:1,2011-04-10T19:00:00Z,26.6493,-81.8810,2.179,6.01,1111122 
SCCF RECON,ioos:station:SCCF:53:1,2011-04-10T20:00:00Z,26.6493,-81.8810,2.202,5.91,1111122 
SCCF RECON,ioos:station:SCCF:53:1,2011-04-10T21:00:00Z,26.6493,-81.8810,2.243,5.76,1111122 
SCCF RECON,ioos:station:SCCF:53:1,2011-04-10T22:00:00Z,26.6493,-81.8810,2.29,5.81,1111122 
SCCF RECON,ioos:station:SCCF:53:1,2011-04-10T23:00:00Z,26.6493,-81.8810,2.328,5.54,1111122 
SCCF RECON,ioos:station:SCCF:53:1,2011-04-11T00:00:00Z,26.6493,-81.8810,2.349,5.46,1111122 
SCCF RECON,ioos:station:SCCF:53:1,2011-04-11T01:00:00Z,26.6493,-81.8810,2.348,5.96,1111122 
SCCF RECON,ioos:station:SCCF:53:1,2011-04-11T02:00:00Z,26.6493,-81.8810,2.3,5.5,1111122 
SCCF RECON,ioos:station:SCCF:53:1,2011-04-11T03:00:00Z,26.6493,-81.8810,2.25,5.47,1111122 
SCCF RECON,ioos:station:SCCF:53:1,2011-04-11T04:00:00Z,26.6493,-81.8810,2.2,5.32,1111122 
SCCF RECON,ioos:station:SCCF:53:1,2011-04-11T05:00:00Z,26.6493,-81.8810,2.14,5.37,1111122 
SCCF RECON,ioos:station:SCCF:53:1,2011-04-11T06:00:00Z,26.6493,-81.8810,2.08,4.89,1111122 
SCCF RECON,ioos:station:SCCF:53:1,2011-04-11T07:00:00Z,26.6493,-81.8810,2.019,4.67,1111122 
SCCF RECON,ioos:station:SCCF:53:1,2011-04-11T08:00:00Z,26.6493,-81.8810,1.96,4.74,1111122 
SCCF RECON,ioos:station:SCCF:53:1,2011-04-11T09:00:00Z,26.6493,-81.8810,1.91,4.75,1111122 
SCCF RECON,ioos:station:SCCF:53:1,2011-04-11T10:00:00Z,26.6493,-81.8810,1.9,4.64,1111122 
SCCF RECON,ioos:station:SCCF:53:1,2011-04-11T11:00:00Z,26.6493,-81.8810,1.92,4.75,1111122 
SCCF RECON,ioos:station:SCCF:53:1,2011-04-11T12:00:00Z,26.6493,-81.8810,1.96,4.63,1111122 
SCCF RECON,ioos:station:SCCF:53:1,2011-04-11T13:00:00Z,26.6493,-81.8810,2.01,4.66,1111122 
SCCF RECON,ioos:station:SCCF:53:1,2011-04-11T14:00:00Z,26.6493,-81.8810,2.055,4.7,1111122 
SCCF RECON,ioos:station:SCCF:53:1,2011-04-11T15:00:00Z,26.6493,-81.8810,2.1,4.58,1111122 
SCCF RECON,ioos:station:SCCF:53:1,2011-04-11T16:00:00Z,26.6493,-81.8810,2.134,4.83,1111122 
SCCF RECON,ioos:station:SCCF:53:1,2011-04-11T17:00:00Z,26.6493,-81.8810,2.159,5.03,1111122 
SCCF RECON,ioos:station:SCCF:53:1,2011-04-11T18:00:00Z,26.6493,-81.8810,2.162,5.83,1111122 
SCCF RECON,ioos:station:SCCF:53:1,2011-04-11T19:00:00Z,26.6493,-81.8810,2.162,6.39,1111122 
SCCF RECON,ioos:station:SCCF:53:1,2011-04-11T20:00:00Z,26.6493,-81.8810,2.186,6.11,1111122 